Terug naar catalogus

THORAD AGENA D DEB

ActiefLEO
NORAD 4143·DEBRIS·🇺🇸 United States

Gelanceerd Sep 30, 1969 vanaf Vandenberg Space Force Base

Loading…

Volgende Passages (komende 24 uur)

TLE

VersSource: Space-Track

Epoch: Sep 14, 2026, 10:43 UTC

1 04143U 69082M   26257.44657670  .00000231  00000-0  13216-3 0  9990
2 04143  70.1109  55.8725 0022669 315.7790  44.1517 14.20815433930859

Volg THORAD AGENA D DEB in realtime met AllMySat

Download on the App Store